Tracking 19720 objects as of 26-Jun-2019
HD Live streaming from Space Station
objects crossing your sky now

FENGYUN 1C DEB

Track FENGYUN 1C DEB now!
10-day predictions


NORAD ID: 30484
Int'l Code: 1999-025AGW
Perigee: 609.8 km
Apogee: 699.2 km
Inclination: 99.0 °
Period: 97.7 minutes
Semi major axis: 7025 km
RCS: 0.019 m2 (small)
Launch date: May 10, 1999
Source: People's Republic of China (PRC)
Launch site: Taiyaun Space Center, China (TSC)

Note: This is SATELLITE DEBRIS
aabbcc
Your satellite tracking list
Your tracking list is empty




NASA's NSSDC Master Catalog

Two Line Element Set (TLE):
1 30484U 99025AGW 19176.03865991  .00001442  00000-0  22068-3 0  9991
2 30484  99.0267 198.4170 0063564   4.3321 355.8422 14.74303893658045
Source of the keplerian elements: AFSPC